weather.gov     
National Weather Service

Terminal Aerodrome Forecast
NWS Homepage
This page is being discontinued on March 12, 2014.
The same data is available at this site. Please update your bookmarks.
Thank you, and we apologize for the inconvenience.
Please send an email to SR-SRH.Webmaster@noaa.gov with any concerns.


Current Version
Previous Version:    01  02  03  04  05  06  07  08  09  10  11  12  13  14  15  16  17  18  19  20  21  22  23  24  25  26  27  28  29  30  
   31  32  33  34  35  36  37  38  39  40  41  42  43  44  
[Printable]
324
FTPQ31 PGUM 300500
TAFGRO
TAF
PGRO 300533Z 3006/0106 32012G17KT P6SM VCSH FEW015 BKN035 BKN080
      TEMPO 3006/3007 3SM RA BR BKN015
     FM300700 28015KT P6SM VCSH SCT015CB BKN035 BKN100
     FM301700 22020G30KT P6SM VCSH SCT015 BKN035 BKN100=


U.S. Dept. of Commerce
NOAA National Weather Service
1325 East West Highway
Silver Spring, MD 20910
E-mail: w-nws.webmaster@noaa.gov
Page last modified: May 16, 2007
NATIONAL WEATHER SERVICE: for Safety, for Work, for Fun - FOR LIFE